Radiation Dose at Monitoring Post of Fukushima Daini Nuclear Power Station
Date,Time,MP-1(microSv/h),MP-2(microSv/h),MP-3(microSv/h),MP-4(microSv/h),MP-5(microSv/h),MP-6(microSv/h),MP-7(microSv/h),Wind Direction,Wind Velocity(m/s),Rain
2013/09/10,00:00,0.9,0.6,0.9,0.8,0.8,0.4,0.3,south,2.2,No
2013/09/10,00:10,0.9,0.6,0.9,0.8,0.8,0.4,0.3,south-southwest,2.4,No
2013/09/10,00:20,0.9,0.6,0.9,0.8,0.8,0.4,0.3,southwest,3.1,No
2013/09/10,00:30,0.9,0.6,0.9,0.8,0.8,0.4,0.3,southwest,2.5,No
2013/09/10,00:40,0.9,0.6,0.9,0.8,0.8,0.4,0.3,south-southwest,1.9,No
2013/09/10,00:50,0.9,0.6,0.9,0.8,0.8,0.4,0.3,south-southwest,1.0,No
2013/09/10,01:00,0.9,0.6,0.9,0.8,0.8,0.4,0.3,south,2.3,No
2013/09/10,01:10,0.9,0.6,0.9,0.8,0.8,0.4,0.3,south,1.4,No
2013/09/10,01:20,0.9,0.6,0.9,0.8,0.8,0.4,0.3,south,1.3,No
2013/09/10,01:30,0.9,0.6,0.9,0.8,0.8,0.4,0.3,south,2.0,No
2013/09/10,01:40,0.9,0.6,0.9,0.8,0.8,0.4,0.3,south-southwest,2.2,No
2013/09/10,01:50,0.9,0.6,0.9,0.8,0.8,0.4,0.3,south-southwest,2.0,No
2013/09/10,02:00,0.9,0.6,0.9,0.8,0.8,0.4,0.3,south-southwest,1.7,No
2013/09/10,02:10,0.9,0.6,0.9,0.8,0.8,0.4,0.3,south-southwest,1.6,No
2013/09/10,02:20,0.9,0.6,0.9,0.8,0.8,0.4,0.3,south-southwest,2.2,No
2013/09/10,02:30,0.9,0.6,0.9,0.8,0.8,0.4,0.3,south-southwest,1.5,No
2013/09/10,02:40,0.9,0.6,0.9,0.8,0.8,0.4,0.3,south-southwest,1.4,No
2013/09/10,02:50,0.9,0.6,0.9,0.8,0.8,0.4,0.3,south-southwest,0.7,No
2013/09/10,03:00,0.9,0.6,0.9,0.8,0.8,0.4,0.3,south,1.5,No
2013/09/10,03:10,0.9,0.6,0.9,0.8,0.8,0.4,0.3,south-southwest,1.6,No
2013/09/10,03:20,0.9,0.6,0.9,0.8,0.8,0.4,0.3,south,0.7,No
2013/09/10,03:30,0.9,0.6,0.9,0.8,0.8,0.4,0.3,south-southwest,1.2,No
2013/09/10,03:40,0.9,0.6,0.9,0.8,0.8,0.4,0.3,south-southwest,1.3,No
2013/09/10,03:50,0.9,0.6,0.9,0.8,0.8,0.4,0.3,south,0.8,No
2013/09/10,04:00,0.9,0.6,0.9,0.8,0.8,0.4,0.3,south-southwest,1.0,No
2013/09/10,04:10,0.9,0.6,0.9,0.8,0.8,0.4,0.3,south-southwest,1.0,No
2013/09/10,04:20,0.9,0.6,0.9,0.8,0.8,0.4,0.3,south-southwest,0.8,No
2013/09/10,04:30,0.9,0.6,0.9,0.8,0.8,0.4,0.3,south-southeast,0.5,No
2013/09/10,04:40,0.9,0.6,0.9,0.8,0.8,0.4,0.3,south-southeast,0.9,No
2013/09/10,04:50,0.9,0.6,0.9,0.8,0.8,0.4,0.3,south,1.0,No
2013/09/10,05:00,0.9,0.6,0.9,0.8,0.8,0.4,0.3,south-southwest,1.2,No
2013/09/10,05:10,0.9,0.6,0.9,0.8,0.8,0.4,0.3,south-southwest,0.8,No
2013/09/10,05:20,0.9,0.6,0.9,0.8,0.8,0.4,0.3,south-southwest,1.2,No
2013/09/10,05:30,0.9,0.6,0.9,0.8,0.8,0.4,0.3,south-southwest,1.4,No
2013/09/10,05:40,0.9,0.6,0.9,0.8,0.8,0.4,0.3,southwest,1.2,No
2013/09/10,05:50,0.9,0.6,0.9,0.8,0.8,0.4,0.3,southwest,0.7,No
2013/09/10,06:00,0.9,0.6,0.9,0.8,0.8,0.4,0.3,southwest,0.6,No
2013/09/10,06:10,0.9,0.6,0.9,0.8,0.8,0.4,0.3,-,CALM,No
2013/09/10,06:20,0.9,0.6,0.9,0.8,0.8,0.4,0.3,southwest,0.9,No
2013/09/10,06:30,0.9,0.6,0.9,0.8,0.8,0.4,0.3,-,CALM,No
2013/09/10,06:40,0.9,0.6,0.9,0.8,0.8,0.4,0.3,-,CALM,No
2013/09/10,06:50,0.9,0.6,0.9,0.8,0.8,0.4,0.3,-,CALM,No
2013/09/10,07:00,0.9,0.6,0.9,0.8,0.8,0.4,0.3,-,CALM,No
2013/09/10,07:10,0.9,0.6,0.9,0.8,0.8,0.4,0.3,-,CALM,No
2013/09/10,07:20,0.9,0.6,0.9,0.8,0.8,0.4,0.3,south-southwest,0.6,No
2013/09/10,07:30,0.9,0.6,0.9,0.8,0.8,0.4,0.3,south,1.0,No
2013/09/10,07:40,0.9,0.6,0.9,0.8,0.8,0.4,0.3,south-southwest,0.6,No
2013/09/10,07:50,0.9,0.6,0.9,0.8,0.8,0.4,0.3,south-southwest,0.7,No
2013/09/10,08:00,0.9,0.6,0.9,0.8,0.8,0.4,0.3,south,1.0,No
2013/09/10,08:10,0.9,0.6,0.9,0.8,0.8,0.4,0.3,-,CALM,No
2013/09/10,08:20,0.9,0.6,0.9,0.8,0.8,0.4,0.3,east,0.6,No
2013/09/10,08:30,0.9,0.6,0.9,0.8,0.8,0.4,0.3,north-northeast,0.8,No
2013/09/10,08:40,0.9,0.6,0.9,0.8,0.8,0.4,0.3,east-northeast,1.7,No
2013/09/10,08:50,0.9,0.6,0.9,0.8,0.8,0.4,0.3,east,1.0,No
2013/09/10,09:00,0.9,0.6,0.9,0.8,0.8,0.4,0.3,east,1.5,No
2013/09/10,09:10,0.9,0.6,0.9,0.8,0.8,0.4,0.3,east-southeast,0.9,No
2013/09/10,09:20,0.9,0.6,0.9,0.8,0.8,0.4,0.3,east,1.0,No
2013/09/10,09:30,0.9,0.6,0.9,0.8,0.8,0.4,0.3,east-southeast,0.8,No
2013/09/10,09:40,0.9,0.6,0.9,0.8,0.8,0.4,0.3,east-southeast,1.3,No
2013/09/10,09:50,0.9,0.6,0.9,0.8,0.8,0.4,0.3,east-northeast,1.3,No
2013/09/10,10:00,0.9,0.6,0.9,0.8,0.8,0.4,0.3,east,1.6,No
2013/09/10,10:10,0.9,0.6,0.9,0.8,0.8,0.4,0.3,east,1.9,No
2013/09/10,10:20,0.9,0.6,0.9,0.8,0.8,0.4,0.3,east,2.2,No
2013/09/10,10:30,0.9,0.6,0.9,0.8,0.8,0.4,0.3,east,2.6,No
2013/09/10,10:40,0.9,0.6,0.9,0.8,0.8,0.4,0.3,east,2.3,No
2013/09/10,10:50,0.9,0.6,0.9,0.8,0.8,0.4,0.3,east-southeast,2.1,No
2013/09/10,11:00,0.9,0.6,0.9,0.8,0.8,0.4,0.3,east-southeast,2.1,No
2013/09/10,11:10,0.9,0.6,0.9,0.8,0.8,0.4,0.3,east-southeast,2.0,No
2013/09/10,11:20,0.9,0.6,0.9,0.8,0.8,0.4,0.3,east-southeast,3.0,No
2013/09/10,11:30,0.9,0.6,0.9,0.8,0.8,0.4,0.3,east-southeast,2.5,No
2013/09/10,11:40,0.9,0.6,0.9,0.8,0.8,0.4,0.3,southeast,2.2,No
2013/09/10,11:50,0.9,0.6,0.9,0.8,0.8,0.4,0.3,south-southeast,2.1,No
2013/09/10,12:00,0.9,0.6,0.9,0.8,0.8,0.4,0.3,east-southeast,2.8,No
2013/09/10,12:10,0.9,0.6,0.9,0.8,0.8,0.4,0.3,southeast,2.9,No
2013/09/10,12:20,0.9,0.6,0.9,0.8,0.8,0.4,0.3,southeast,3.5,No
2013/09/10,12:30,0.9,0.6,0.9,0.8,0.8,0.4,0.3,southeast,3.2,No
2013/09/10,12:40,0.9,0.6,0.9,0.8,0.8,0.4,0.3,southeast,3.3,No
2013/09/10,12:50,0.9,0.6,0.9,0.8,0.8,0.4,0.3,south-southeast,2.8,No
2013/09/10,13:00,0.9,0.6,0.9,0.8,0.8,0.4,0.3,south-southeast,2.6,No
2013/09/10,13:10,0.9,0.6,0.9,0.8,0.8,0.4,0.3,south-southeast,2.1,No
2013/09/10,13:20,0.9,0.6,0.9,0.8,0.8,0.4,0.3,southeast,2.1,No
2013/09/10,13:30,0.9,0.6,0.9,0.8,0.8,0.4,0.3,east-southeast,2.8,No
2013/09/10,13:40,0.9,0.6,0.9,0.8,0.8,0.4,0.3,east-southeast,2.7,No
2013/09/10,13:50,0.9,0.6,0.9,0.8,0.8,0.4,0.3,southeast,2.4,No
2013/09/10,14:00,0.9,0.6,0.9,0.8,0.8,0.4,0.3,southeast,2.5,No
2013/09/10,14:10,0.9,0.6,0.9,0.8,0.8,0.4,0.3,southeast,2.7,No
2013/09/10,14:20,0.9,0.6,0.9,0.8,0.8,0.4,0.3,southeast,2.6,No
2013/09/10,14:30,0.9,0.6,0.9,0.8,0.8,0.4,0.3,southeast,2.8,No
2013/09/10,14:40,0.9,0.6,0.9,0.8,0.8,0.4,0.3,south-southeast,2.5,No
2013/09/10,14:50,0.9,0.6,0.9,0.8,0.8,0.4,0.3,south-southeast,3.2,No
2013/09/10,15:00,0.9,0.6,0.9,0.8,0.8,0.4,0.3,southeast,2.4,No
2013/09/10,15:10,0.9,0.6,0.9,0.8,0.8,0.4,0.3,south-southeast,2.9,No
2013/09/10,15:20,0.9,0.6,0.9,0.8,0.8,0.4,0.3,south-southeast,2.2,No
2013/09/10,15:30,0.9,0.6,0.9,0.8,0.8,0.4,0.3,southeast,1.7,No
2013/09/10,15:40,0.9,0.6,0.9,0.8,0.8,0.4,0.3,south-southeast,1.5,No
2013/09/10,15:50,0.9,0.6,0.9,0.8,0.8,0.4,0.3,south-southeast,2.0,No
2013/09/10,16:00,0.9,0.6,0.9,0.8,0.8,0.4,0.3,south-southeast,2.0,No
2013/09/10,16:10,0.9,0.6,0.9,0.8,0.8,0.4,0.3,south-southeast,1.8,No
2013/09/10,16:20,0.9,0.6,0.9,0.8,0.8,0.4,0.3,south-southeast,1.5,No
2013/09/10,16:30,0.9,0.6,0.9,0.8,0.8,0.4,0.3,south,1.5,No
2013/09/10,16:40,0.9,0.6,0.9,0.8,0.8,0.4,0.3,south,2.0,No
2013/09/10,16:50,0.9,0.6,0.9,0.8,0.8,0.4,0.3,south-southeast,1.6,No
2013/09/10,17:00,0.9,0.6,0.9,0.8,0.8,0.4,0.3,south,1.2,No
2013/09/10,17:10,0.9,0.6,0.9,0.8,0.8,0.4,0.3,south,1.0,No
2013/09/10,17:20,0.9,0.6,0.9,0.8,0.8,0.4,0.3,south-southeast,1.6,No
2013/09/10,17:30,0.9,0.6,0.9,0.8,0.8,0.4,0.3,south-southeast,2.2,No
2013/09/10,17:40,0.9,0.6,0.9,0.8,0.8,0.4,0.3,south-southeast,1.5,No
2013/09/10,17:50,0.9,0.6,0.9,0.8,0.8,0.4,0.3,southeast,1.4,No
2013/09/10,18:00,0.9,0.6,0.9,0.8,0.8,0.4,0.3,south-southeast,0.7,No
2013/09/10,18:10,0.9,0.6,0.9,0.8,0.8,0.4,0.3,southeast,0.8,No
2013/09/10,18:20,0.9,0.6,0.9,0.8,0.8,0.4,0.3,east-southeast,1.0,No
2013/09/10,18:30,0.9,0.6,0.9,0.8,0.8,0.4,0.3,south-southeast,1.1,No
2013/09/10,18:40,0.9,0.6,0.9,0.8,0.8,0.4,0.3,southeast,0.7,No
2013/09/10,18:50,0.9,0.6,0.9,0.8,0.8,0.4,0.3,southeast,0.7,No
2013/09/10,19:00,0.9,0.6,0.9,0.8,0.8,0.4,0.3,south-southeast,1.4,No
2013/09/10,19:10,0.9,0.6,0.9,0.8,0.8,0.4,0.3,south-southeast,0.7,No
2013/09/10,19:20,0.9,0.6,0.9,0.8,0.8,0.4,0.3,south,0.8,No
2013/09/10,19:30,0.9,0.6,0.9,0.8,0.8,0.4,0.3,south,1.6,No
2013/09/10,19:40,0.9,0.6,0.9,0.8,0.8,0.4,0.3,south,1.1,No
2013/09/10,19:50,0.9,0.6,0.9,0.8,0.8,0.4,0.3,south,1.1,No
2013/09/10,20:00,0.9,0.6,0.9,0.8,0.8,0.4,0.3,south,1.1,No
2013/09/10,20:10,0.9,0.6,0.9,0.8,0.8,0.4,0.3,south,1.6,No
2013/09/10,20:20,0.9,0.6,0.9,0.8,0.8,0.4,0.3,south-southwest,1.3,No
2013/09/10,20:30,0.9,0.6,0.9,0.8,0.8,0.4,0.3,south-southwest,1.1,No
2013/09/10,20:40,0.9,0.6,0.9,0.8,0.8,0.4,0.3,southwest,1.6,No
2013/09/10,20:50,0.9,0.6,0.9,0.8,0.8,0.4,0.3,south-southwest,1.3,No
2013/09/10,21:00,0.9,0.6,0.9,0.8,0.8,0.4,0.3,south-southwest,1.7,No
2013/09/10,21:10,0.9,0.6,0.9,0.8,0.8,0.4,0.3,south-southwest,1.4,No
2013/09/10,21:20,0.9,0.6,0.9,0.8,0.8,0.4,0.3,southwest,1.8,No
2013/09/10,21:30,0.9,0.6,0.9,0.8,0.8,0.4,0.3,south-southwest,1.5,No
2013/09/10,21:40,0.9,0.6,0.9,0.8,0.8,0.4,0.3,south-southwest,1.6,No
2013/09/10,21:50,0.9,0.6,0.9,0.8,0.8,0.4,0.3,south-southwest,1.9,No
2013/09/10,22:00,0.9,0.6,0.9,0.8,0.8,0.4,0.3,south-southwest,1.6,No
2013/09/10,22:10,0.9,0.6,0.9,0.8,0.8,0.4,0.3,south-southwest,1.3,No
2013/09/10,22:20,0.9,0.6,0.9,0.8,0.8,0.4,0.3,southwest,1.4,No
2013/09/10,22:30,0.9,0.6,0.9,0.8,0.8,0.4,0.3,south-southwest,1.4,No
2013/09/10,22:40,0.9,0.6,0.9,0.8,0.8,0.4,0.3,south-southwest,1.6,No
2013/09/10,22:50,0.9,0.6,0.9,0.8,0.8,0.4,0.3,south-southwest,2.1,No
2013/09/10,23:00,0.9,0.6,0.9,0.8,0.8,0.4,0.3,south-southwest,1.7,No
2013/09/10,23:10,0.9,0.6,0.9,0.8,0.8,0.4,0.3,south-southwest,1.9,No
2013/09/10,23:20,0.9,0.6,0.9,0.8,0.8,0.4,0.3,south-southwest,1.5,No
2013/09/10,23:30,0.9,0.6,0.9,0.8,0.8,0.4,0.3,south-southwest,1.6,No
2013/09/10,23:40,0.9,0.6,0.9,0.8,0.8,0.4,0.3,south-southwest,1.6,No
2013/09/10,23:50,0.9,0.6,0.9,0.8,0.8,0.4,0.3,south-southwest,1.6,No
